This is the latest recevied weather packets stored in our database for station/object KB3YCK-2. If no packets are shown the sender has not sent any weather packets the latest 10 day(s).
| Time | Temp. | Humidity | Pressure | Rain* | Wind** | Luminosity | Snow |
|---|---|---|---|---|---|---|---|
| 1778159998 | 10° C | 86% | 1012.9 hPa | 0 mm | - | 195 W/m² | - |
| 1778159703 | 10° C | 87% | 1012.8 hPa | 0 mm | - | 176 W/m² | - |
| 1778155504 | 10° C | 89% | 1012.6 hPa | 0 mm | - | 54 W/m² | - |
| 1778154005 | 10° C | 89% | 1012.4 hPa | 0 mm | - | 40 W/m² | - |
| 1778152203 | 10° C | 90% | 1012.3 hPa | 0 mm | - | 21 W/m² | - |
| 1778151306 | 10° C | 89% | 1012 hPa | 0 mm | - | 18 W/m² | - |
| 1778145907 | 10° C | 89% | 1011.2 hPa | 0 mm | - | 0 W/m² | - |
| 1778145007 | 10° C | 89% | 1011.2 hPa | 0.25 mm | - | 0 W/m² | - |
| 1778143806 | 10° C | 89% | 1010.7 hPa | 0.25 mm | - | 0 W/m² | - |
| 1778143524 | 10° C | 89% | 1010.6 hPa | 0.25 mm | - | 0 W/m² | - |
| 1778139908 | 10° C | 89% | 1010.8 hPa | 0.76 mm | - | 0 W/m² | - |
| 1778136316 | 10.56° C | 89% | 1011.4 hPa | 1.02 mm | - | 0 W/m² | - |
| 1778136013 | 11.11° C | 89% | 1011.6 hPa | 1.02 mm | - | 0 W/m² | - |
| 1778134204 | 11.67° C | 89% | 1011 hPa | 0.76 mm | - | 0 W/m² | - |
| 1778132410 | 12.22° C | 89% | 1011 hPa | 4.57 mm | - | 0 W/m² | - |
| 1778130304 | 13.33° C | 89% | 1011.2 hPa | 3.56 mm | - | 0 W/m² | - |
| 1778129104 | 13.33° C | 89% | 1010.6 hPa | 0.51 mm | - | 0 W/m² | - |
| 1778127304 | 14.44° C | 89% | 1010.2 hPa | 0.25 mm | - | 0 W/m² | - |
| 1778126403 | 15° C | 89% | 1010.1 hPa | 0 mm | - | 0 W/m² | - |
| 1778125805 | 15° C | 88% | 1010.1 hPa | 0 mm | - | 0 W/m² | - |
| 1778123709 | 15.56° C | 88% | 1009.8 hPa | 0 mm | - | 0 W/m² | - |
| 1778120109 | 17.78° C | 88% | 1009.7 hPa | 0 mm | - | 0 W/m² | - |
| 1778118906 | 17.78° C | 88% | 1009.6 hPa | 0 mm | - | 0 W/m² | - |
| 1778117108 | 18.33° C | 88% | 1009.4 hPa | 0 mm | - | 0 W/m² | - |
| 1778116806 | 18.33° C | 88% | 1009.4 hPa | 0 mm | - | 0 W/m² | - |
* Rain latest hour (hover to see other rain measurements)
** Current wind speed in m/s (hover to see current wind gust speed)